Wind_Speed
29 28 34 37 40 43 46 47 45 45 45 44 43 41 41 42 43 44 45 46 48 50 49 50 51 52 54 56 58 60 62 65 66 68 69 70 72 74 76 78 80 81 81
33 34 37 38 41 43 46 48 50 51 50 49 48 48 48 49 49 50 49 49 51 51 51 53 55 57 58 60 63 66 67 68 70 73 76 77 77 78 80 80 80 78 77
36 34 35 37 39 42 45 48 50 52 53 52 52 52 53 54 54 55 54 53 52 53 56 59 61 62 64 65 67 70 72 73 74 78 81 84 84 82 78 75 72 70 67
34 35 35 37 39 42 44 46 48 50 51 53 54 55 55 56 56 57 57 58 60 63 66 68 69 70 71 72 73 75 78 80 81 82 84 85 83 78 72 64 62 61 60
34 35 37 38 40 42 43 45 47 48 49 51 52 53 53 55 56 58 60 63 66 70 73 75 77 77 78 79 80 82 83 85 86 84 82 77 71 65 63 58 55 54 54
37 37 37 39 40 41 42 43 44 45 45 46 48 50 52 55 58 61 64 67 70 74 77 80 82 83 85 86 86 86 86 85 82 75 67 60 57 55 55 54 51 49 48
39 38 37 38 38 39 39 40 40 42 43 45 48 51 54 57 60 63 67 71 75 78 82 84 86 87 88 87 85 82 77 70 62 54 51 50 50 49 48 47 46 44 43
37 37 36 37 38 38 38 39 40 43 45 48 50 53 56 59 63 67 71 75 78 80 82 83 83 82 78 74 68 61 54 48 45 44 44 44 44 44 43 43 42 40 37
36 38 38 39 39 39 40 41 43 45 48 50 53 55 58 62 67 69 71 72 72 70 68 65 61 58 53 48 44 41 40 39 39 40 41 41 41 41 40 39 38 37 35
39 42 42 42 41 41 42 43 45 47 49 52 54 57 62 65 66 64 62 59 54 49 45 43 40 38 37 36 36 36 36 36 37 38 39 39 39 38 38 36 34 33 32
43 46 45 44 43 44 45 46 47 49 51 53 56 60 63 62 57 54 50 46 42 39 37 36 35 34 33 33 33 34 35 34 34 34 34 34 34 33 32 30 29 28 29
47 48 47 46 46 46 47 48 49 51 53 55 59 61 58 51 47 44 42 40 38 37 36 36 35 34 34 34 34 33 32 30 30 30 31 31 30 28 26 25 24 24 24
47 48 48 48 48 48 49 50 51 52 55 58 59 56 47 41 41 40 39 39 39 38 38 38 37 36 35 35 34 32 31 30 30 30 29 29 27 25 23 21 21 21 22
48 48 48 48 49 50 51 51 52 54 57 57 54 44 37 37 38 37 38 39 40 41 41 41 41 39 38 37 36 35 34 33 32 30 29 27 26 23 21 20 20 20 20
48 48 48 49 49 50 51 52 53 55 56 52 42 35 33 34 35 36 38 40 41 43 43 43 43 42 40 39 37 37 36 35 33 31 29 27 25 22 21 20 19 19 19
48 48 49 49 50 50 51 51 53 53 50 40 32 30 31 32 33 36 38 40 43 44 44 44 43 42 40 39 38 36 35 34 32 31 29 27 24 21 19 18 17 17 16
47 48 49 49 49 49 49 51 51 48 39 30 27 27 28 30 32 35 38 41 43 44 43 42 40 38 37 36 35 33 31 30 30 29 27 25 23 19 17 16 15 14 14
47 48 48 48 48 47 48 49 46 36 28 23 23 25 27 30 33 37 40 42 43 43 42 39 36 34 33 32 31 31 29 28 27 27 25 23 21 18 15 13 12 12 11
46 46 46 46 45 46 47 43 33 24 21 20 22 24 27 31 35 39 42 43 42 41 39 36 35 34 32 30 29 28 26 25 25 25 23 21 19 16 13 11 10 10 8
44 43 43 42 43 43 39 30 21 18 18 19 22 25 29 33 38 41 43 43 41 40 38 36 35 34 32 30 28 26 24 24 23 22 21 18 15 13 11 9 8 7 5
39 38 38 39 40 35 27 19 16 16 17 19 23 27 32 36 40 43 44 42 40 38 36 35 35 34 33 31 29 26 23 22 21 20 18 16 12 10 8 7 5 4 4
34 34 35 36 31 23 17 14 14 15 17 21 25 30 35 39 43 43 42 40 38 37 36 35 35 34 33 31 29 26 23 20 18 16 15 13 10 8 7 6 5 4 7
30 32 33 29 20 14 11 12 13 16 19 24 28 33 38 41 43 42 40 40 39 39 37 36 35 33 31 29 28 25 23 19 14 12 11 9 8 7 8 8 8 9 11
29 30 25 18 12 9 9 11 13 17 22 26 31 35 39 42 42 40 39 39 40 40 38 37 34 32 29 26 25 24 23 16 10 8 7 5 8 9 11 12 12 13 14
27 22 15 10 8 7 8 11 15 19 24 28 33 37 40 40 41 41 39 39 39 39 38 35 33 29 26 24 22 21 18 12 5 4 3 5 9 12 15 15 15 15 17
20 13 8 7 6 6 8 12 16 21 25 30 34 37 39 39 40 40 40 39 39 38 37 34 31 28 26 24 21 17 14 8 2 0 2 6 10 13 17 18 17 17 17
Wind_Direction
278 277 285 293 299 301 304 310 313 314 313 311 308 305 303 301 299 297 297 296 294 292 290 292 293 292 291 291 291 292 292 292 292 292 292 291 291 292 291 291 289 288 287
273 277 285 291 295 298 302 305 307 307 307 307 307 307 305 303 302 301 299 297 295 291 289 293 293 292 291 292 292 292 291 291 291 292 292 291 291 291 290 289 288 286 284
279 281 283 285 287 291 295 298 300 302 304 305 305 305 304 303 302 301 300 299 296 292 293 294 293 293 293 293 294 293 293 292 292 293 294 293 293 291 289 287 285 283 281
283 281 279 280 284 288 292 295 297 299 300 301 302 302 302 301 300 300 299 298 297 296 296 296 296 295 295 295 295 294 294 294 293 293 293 293 293 292 288 285 283 282 280
287 284 283 285 287 290 294 296 297 298 298 298 298 299 298 298 298 297 297 297 296 296 296 295 295 295 295 294 294 293 293 293 293 293 292 291 290 289 288 287 285 283 282
291 288 288 289 291 295 296 297 297 298 298 298 298 297 297 297 297 297 297 296 296 295 294 294 294 294 293 292 292 292 292 292 293 292 291 290 288 288 289 289 288 286 284
293 293 293 294 295 298 299 299 299 300 300 300 299 298 298 298 298 298 297 297 296 295 294 293 292 291 291 290 291 292 292 292 292 291 290 289 290 290 290 289 288 287 286
294 295 296 298 300 302 303 303 303 302 301 300 300 299 300 300 301 301 301 299 298 296 294 292 291 291 291 291 292 293 293 292 292 292 292 292 291 290 289 289 289 287 286
293 297 300 303 305 306 306 305 304 303 303 302 302 303 304 305 306 305 304 303 301 299 298 297 296 295 295 295 295 295 294 294 294 294 294 293 292 290 289 288 288 287 287
291 297 300 303 306 307 306 305 304 304 304 304 305 306 308 310 310 309 309 308 308 307 307 307 306 304 301 300 298 297 296 296 296 296 296 295 292 290 288 287 286 287 288
292 296 299 303 307 307 307 306 305 305 306 307 308 310 312 313 312 312 313 315 315 314 314 313 310 307 305 302 300 299 299 299 300 301 301 300 297 293 289 286 285 285 288
293 296 300 305 307 307 307 307 307 307 308 309 311 313 314 314 315 317 320 321 321 319 317 314 311 308 305 301 299 299 299 300 301 303 305 304 302 298 293 287 284 285 287
292 297 301 304 306 307 307 308 308 309 310 311 313 314 314 315 318 321 323 324 324 322 320 316 312 308 304 300 297 295 294 295 298 300 302 303 303 301 296 290 286 285 288
290 296 301 303 305 306 307 308 309 310 311 313 314 314 314 317 321 324 327 327 327 325 322 317 313 309 304 299 295 293 292 292 293 295 297 299 300 299 296 292 288 287 290
292 297 299 301 304 305 307 308 309 311 313 314 314 313 315 319 323 327 329 331 330 328 324 320 315 310 306 300 295 292 289 288 289 289 290 293 296 297 294 290 288 289 293
294 297 299 301 303 305 306 308 311 313 314 313 313 314 318 323 326 330 333 334 333 330 327 322 318 314 310 305 299 293 288 286 284 284 285 286 290 294 293 290 290 291 295
294 296 298 301 302 304 307 310 312 313 312 312 313 317 321 325 329 332 334 334 334 332 329 325 323 322 319 313 307 301 293 287 282 280 280 281 284 288 288 287 291 294 298
292 294 297 300 302 305 308 311 312 311 310 311 315 320 324 327 330 332 333 334 334 332 330 328 327 327 325 321 315 308 300 293 285 280 278 278 278 281 283 282 287 292 295
291 294 297 300 303 306 309 310 309 307 308 313 319 323 327 329 330 332 333 334 334 333 331 328 328 328 326 324 320 316 309 300 292 284 279 275 272 274 275 272 281 289 285
289 293 296 300 304 308 309 307 303 305 310 316 322 326 328 329 331 332 333 334 334 334 331 328 327 328 328 326 323 319 313 305 297 289 281 273 267 266 266 259 272 283 263
289 294 299 303 307 308 306 299 299 305 313 320 325 327 328 329 331 333 334 334 334 333 330 328 327 326 326 325 325 323 317 307 298 291 282 271 260 254 245 235 250 257 209
292 298 303 306 306 303 296 293 300 310 318 323 326 328 329 331 333 333 334 334 334 333 331 329 327 327 326 325 325 326 322 312 298 289 282 268 249 233 215 205 209 191 170
296 301 305 305 300 290 285 294 307 317 324 326 328 329 331 333 333 334 335 336 335 335 335 333 331 329 327 325 325 329 329 318 299 288 283 260 229 204 183 171 165 157 154
301 304 303 295 282 275 285 302 316 323 326 328 330 332 334 335 336 338 340 340 339 338 338 337 335 333 330 328 327 329 330 324 300 286 282 238 202 182 165 157 153 151 152
303 301 290 269 258 270 295 314 323 327 329 332 335 337 338 339 340 342 345 344 342 341 340 340 338 336 334 333 333 334 334 331 308 281 261 201 182 167 157 154 154 154 156
299 286 257 238 248 281 311 323 328 332 336 339 341 342 343 344 344 344 346 346 345 345 344 343 342 341 341 341 342 343 344 348 4 158 180 176 171 160 156 155 157 159 161
Height
5853 5851 5847 5843 5838 5834 5829 5824 5821 5822 5822 5822 5820 5817 5814 5810 5806 5804 5801 5796 5792 5788 5784 5781 5778 5774 5770 5766 5761 5756 5753 5748 5743 5738 5735 5733 5730 5726 5722 5718 5714 5710 5706
5849 5848 5845 5842 5837 5831 5826 5822 5819 5817 5815 5812 5809 5806 5802 5799 5796 5793 5790 5786 5782 5778 5773 5770 5766 5762 5758 5753 5747 5742 5737 5733 5728 5722 5716 5713 5712 5710 5704 5699 5695 5690 5685
5843 5844 5843 5840 5835 5831 5827 5823 5818 5814 5809 5805 5801 5797 5793 5789 5785 5782 5778 5774 5769 5764 5760 5756 5752 5747 5743 5738 5733 5726 5720 5715 5712 5706 5697 5690 5687 5686 5685 5680 5674 5669 5666
5838 5838 5836 5834 5831 5827 5824 5820 5815 5810 5805 5800 5795 5790 5785 5780 5776 5771 5767 5763 5757 5751 5745 5739 5734 5730 5725 5720 5715 5709 5702 5695 5691 5688 5680 5671 5664 5659 5657 5661 5655 5650 5647
5832 5830 5828 5826 5824 5821 5818 5814 5809 5804 5799 5794 5789 5783 5778 5772 5767 5762 5756 5751 5744 5737 5729 5722 5716 5711 5706 5700 5694 5689 5683 5676 5669 5665 5660 5653 5646 5640 5634 5637 5637 5633 5630
5824 5822 5820 5818 5816 5813 5810 5806 5801 5796 5791 5786 5781 5775 5769 5763 5758 5752 5745 5738 5731 5722 5713 5705 5698 5692 5685 5679 5673 5667 5661 5655 5648 5643 5638 5633 5629 5625 5621 5618 5617 5615 5613
5817 5815 5813 5811 5808 5805 5801 5797 5792 5787 5782 5777 5772 5766 5760 5753 5747 5739 5732 5723 5715 5706 5696 5687 5679 5672 5664 5658 5652 5646 5641 5635 5629 5625 5621 5618 5614 5610 5607 5604 5602 5600 5599
5811 5809 5806 5803 5800 5797 5792 5788 5783 5778 5773 5768 5762 5755 5749 5742 5734 5725 5715 5705 5695 5685 5676 5666 5658 5650 5643 5637 5632 5628 5623 5620 5616 5612 5609 5605 5601 5598 5595 5592 5589 5588 5587
5805 5802 5799 5796 5792 5788 5784 5779 5774 5768 5763 5757 5751 5744 5737 5728 5719 5708 5697 5686 5675 5665 5656 5647 5639 5632 5626 5622 5618 5615 5612 5608 5605 5601 5598 5594 5590 5587 5584 5581 5579 5577 5575
5798 5795 5791 5788 5784 5780 5775 5770 5765 5759 5753 5746 5739 5731 5723 5713 5703 5692 5681 5670 5659 5650 5642 5635 5628 5622 5617 5613 5609 5606 5602 5599 5595 5591 5587 5583 5580 5576 5574 5571 5569 5567 5565
5790 5787 5783 5780 5776 5771 5766 5760 5755 5748 5742 5734 5726 5718 5709 5699 5689 5679 5669 5659 5650 5642 5635 5628 5622 5616 5611 5606 5602 5598 5594 5590 5586 5582 5578 5574 5570 5567 5564 5562 5560 5559 5557
5781 5778 5774 5771 5766 5761 5755 5750 5744 5737 5730 5722 5714 5706 5696 5687 5678 5670 5661 5652 5644 5636 5629 5622 5616 5610 5605 5600 5595 5590 5586 5582 5579 5575 5571 5567 5563 5559 5556 5554 5553 5552 5550
5774 5770 5766 5762 5757 5751 5745 5739 5733 5726 5719 5711 5702 5694 5685 5678 5670 5662 5654 5646 5638 5631 5623 5617 5610 5604 5598 5592 5587 5582 5578 5575 5571 5568 5564 5560 5557 5553 5550 5548 5547 5545 5544
5767 5763 5759 5754 5748 5742 5735 5729 5722 5715 5708 5700 5691 5683 5677 5670 5663 5656 5648 5640 5633 5625 5617 5610 5603 5596 5590 5584 5579 5574 5570 5566 5563 5560 5557 5554 5551 5548 5545 5543 5541 5540 5539
5758 5755 5751 5745 5740 5733 5726 5720 5713 5705 5697 5689 5682 5676 5670 5664 5657 5650 5643 5635 5627 5618 5610 5602 5594 5587 5580 5574 5569 5565 5561 5558 5555 5552 5550 5547 5544 5542 5539 5538 5536 5535 5533
5750 5746 5741 5736 5731 5724 5717 5710 5704 5696 5688 5681 5675 5670 5664 5659 5652 5645 5637 5629 5620 5611 5602 5593 5585 5577 5570 5564 5558 5554 5551 5548 5546 5544 5542 5540 5538 5536 5534 5532 5531 5530 5528
5742 5737 5732 5727 5721 5715 5709 5702 5695 5687 5680 5675 5670 5665 5660 5654 5648 5640 5632 5623 5614 5604 5595 5585 5577 5569 5562 5555 5549 5544 5541 5538 5536 5535 5534 5533 5531 5530 5529 5528 5527 5525 5524
5733 5728 5723 5718 5712 5707 5701 5694 5687 5680 5675 5670 5666 5661 5656 5650 5643 5635 5626 5617 5607 5597 5588 5578 5570 5563 5555 5548 5542 5536 5532 5529 5527 5526 5525 5525 5525 5524 5524 5523 5523 5522 5521
5724 5720 5715 5710 5704 5699 5692 5686 5680 5675 5671 5667 5663 5657 5652 5645 5637 5629 5620 5610 5601 5591 5581 5572 5565 5557 5550 5543 5536 5531 5526 5522 5520 5518 5518 5518 5519 5519 5519 5519 5520 5519 5519
5716 5711 5707 5702 5697 5691 5685 5679 5675 5672 5668 5664 5659 5654 5647 5640 5632 5623 5614 5604 5594 5584 5575 5567 5559 5552 5544 5538 5531 5526 5521 5517 5514 5512 5511 5512 5513 5515 5515 5516 5517 5517 5517
5707 5703 5699 5694 5689 5684 5679 5675 5673 5670 5666 5661 5656 5650 5643 5636 5627 5617 5608 5598 5589 5579 5570 5561 5553 5546 5539 5532 5526 5520 5516 5512 5509 5507 5506 5507 5509 5510 5512 5513 5514 5515 5516
5699 5696 5692 5687 5682 5678 5675 5673 5670 5667 5663 5658 5653 5646 5639 5630 5621 5612 5602 5593 5584 5574 5565 5556 5547 5540 5532 5526 5520 5515 5510 5506 5503 5502 5502 5503 5505 5507 5509 5511 5513 5514 5515
5693 5689 5685 5681 5677 5675 5673 5671 5668 5665 5660 5655 5649 5642 5634 5625 5616 5607 5597 5587 5577 5568 5559 5550 5541 5533 5526 5520 5515 5510 5506 5501 5499 5498 5499 5500 5503 5505 5508 5510 5512 5514 5516
5686 5683 5679 5676 5674 5673 5672 5670 5667 5663 5658 5652 5646 5638 5630 5620 5610 5601 5592 5581 5571 5562 5553 5544 5536 5528 5521 5515 5510 5506 5501 5497 5496 5496 5497 5498 5501 5504 5507 5510 5512 5515 5518
5680 5677 5674 5673 5672 5672 5671 5668 5665 5661 5655 5649 5642 5634 5625 5615 5605 5596 5587 5577 5567 5557 5548 5539 5531 5524 5518 5512 5507 5502 5498 5495 5494 5494 5496 5498 5501 5503 5506 5510 5513 5516 5519
5675 5672 5672 5672 5672 5671 5670 5667 5663 5659 5653 5646 5638 5630 5620 5611 5601 5592 5583 5574 5564 5554 5544 5535 5528 5520 5514 5508 5504 5500 5496 5494 5494 5495 5496 5498 5501 5503 5507 5510 5514 5517 5520